TimePST,TemperatureF,Dew PointF,Humidity,Sea Level PressureIn,VisibilityMPH,Wind Direction,Wind SpeedMPH,Gust SpeedMPH,PrecipitationIn,Events,Conditions,WindDirDegrees,DateUTC
12:52 AM,46.9,39.9,77,30.19,10.0,SSE,4.6,-,N/A,,Clear,150,2012-12-04 08:52:00
1:52 AM,46.9,39.9,77,30.19,10.0,NNW,5.8,-,N/A,,Clear,340,2012-12-04 09:52:00
2:52 AM,46.0,39.0,76,30.19,10.0,Calm,Calm,-,N/A,,Clear,0,2012-12-04 10:52:00
3:52 AM,46.0,39.0,76,30.19,10.0,NNE,4.6,-,N/A,,Clear,30,2012-12-04 11:52:00
4:52 AM,45.0,39.0,80,30.22,10.0,Calm,Calm,-,N/A,,Clear,0,2012-12-04 12:52:00
6:52 AM,45.0,39.0,80,30.26,10.0,East,4.6,-,N/A,,Clear,90,2012-12-04 14:52:00
7:52 AM,46.0,39.0,76,30.28,10.0,Calm,Calm,-,N/A,,Clear,0,2012-12-04 15:52:00
8:52 AM,51.1,41.0,68,30.28,10.0,WNW,3.5,-,N/A,,Clear,300,2012-12-04 16:52:00
9:52 AM,57.0,41.0,55,30.28,10.0,Calm,Calm,-,N/A,,Clear,0,2012-12-04 17:52:00
10:52 AM,59.0,41.0,51,30.26,10.0,SE,8.1,-,N/A,,Clear,140,2012-12-04 18:52:00
11:52 AM,62.1,41.0,46,30.22,10.0,NE,4.6,-,N/A,,Clear,50,2012-12-04 19:52:00
12:52 PM,62.1,41.0,46,30.20,10.0,SE,8.1,-,N/A,,Clear,130,2012-12-04 20:52:00
1:52 PM,62.1,39.9,44,30.18,10.0,South,4.6,-,N/A,,Clear,170,2012-12-04 21:52:00
2:52 PM,62.1,39.9,44,30.19,10.0,Calm,Calm,-,N/A,,Clear,0,2012-12-04 22:52:00
3:52 PM,61.0,39.9,46,30.17,10.0,Calm,Calm,-,N/A,,Clear,0,2012-12-04 23:52:00
4:52 PM,57.9,39.9,51,30.17,10.0,ESE,6.9,-,N/A,,Clear,110,2012-12-05 00:52:00
5:52 PM,55.0,39.9,57,30.18,10.0,Calm,Calm,-,N/A,,Clear,0,2012-12-05 01:52:00
6:52 PM,53.1,39.9,61,30.19,10.0,Calm,Calm,-,N/A,,Clear,0,2012-12-05 02:52:00
7:52 PM,54.0,39.9,59,30.19,10.0,NNE,4.6,-,N/A,,Clear,20,2012-12-05 03:52:00
8:52 PM,50.0,39.0,66,30.19,10.0,Calm,Calm,-,N/A,,Clear,0,2012-12-05 04:52:00
9:52 PM,51.1,39.0,63,30.18,10.0,Calm,Calm,-,N/A,,Clear,0,2012-12-05 05:52:00
10:52 PM,48.9,39.0,69,30.17,10.0,Calm,Calm,-,N/A,,Clear,0,2012-12-05 06:52:00
11:52 PM,48.9,39.9,71,30.15,10.0,East,5.8,-,N/A,,Clear,100,2012-12-05 07:52:00